Location: Newark
(21.1200°N, 73.4000°E)
Time: 05:38:18
(UTC+00:00)

SR - Pass Details

Date: 06 February 2020
Orbit: 575 x 881 km, 66.7° (Epoch: 20 February)

Event Time Altitude Azimuth Distance (km) Brightness Sun altitude
Rises 22:58:02 0° 358° (N) 3,222 - -38.3°
Reaches altitude 10° 23:01:17 10° 18° (NNE) 2,229 - -37.6°
Exits shadow 23:04:33 18° 58° (ENE) 1,706 ? -36.8°
Maximum altitude 23:04:37 18° 59° (ENE) 1,704 ? -36.8°
Drops below altitude 10° 23:07:47 10° 101° (ESE) 2,092 ? -36.0°
Sets 23:10:41 0° 121° (ESE) 2,944 ? -35.4°
